• In Uzbekistan
  • List of Countries
  • For 7 days
  • Water Temperature
  • Weather Map
  • Weather Widgets
  • user-avatar
    Login

    Hourly Weather Baraki Barak

    Today, 30 March, Monday

    Time Temperature Precipitation Wind Pressure Humidity
    00:00 +9°C° 0.7 mm 2 mps 597 mmHg 63%
    01:00 +9°C° 0.7 mm 1 mps 596 mmHg 75%
    02:00 +8°C° 0.7 mm 1 mps 596 mmHg 86%
    03:00 +7°C° 1.5 mm 1 mps 595 mmHg 89%
    04:00 +6°C° 1.5 mm 2 mps 595 mmHg 91%
    05:00 +6°C° 0 mm 2 mps 595 mmHg 92%
    06:00 +5°C° 2.5 mm 2 mps 595 mmHg 93%
    07:00 +6°C° 2.5 mm 1 mps 595 mmHg 94%
    08:00 +6°C° 2.5 mm 1 mps 595 mmHg 95%
    09:00 +6°C° 0.8 mm 1 mps 595 mmHg 94%
    10:00 +6°C° 0.8 mm 2 mps 596 mmHg 94%
    11:00 +6°C° 0.8 mm 2 mps 596 mmHg 93%
    12:00 +6°C° 0.2 mm 2 mps 596 mmHg 92%
    13:00 +6°C° 0.2 mm 2 mps 596 mmHg 91%
    14:00 +7°C° 0.2 mm 2 mps 595 mmHg 90%
    15:00 +7°C° 0 mm 2 mps 595 mmHg 89%
    16:00 +7°C° 0 mm 3 mps 595 mmHg 89%
    17:00 +7°C° 0 mm 3 mps 594 mmHg 88%
    18:00 +7°C° 0.6 mm 3 mps 595 mmHg 89%
    19:00 +7°C° 0.6 mm 2 mps 595 mmHg 91%
    20:00 +6°C° 0.6 mm 2 mps 595 mmHg 92%
    21:00 +6°C° 2.6 mm 2 mps 595 mmHg 93%
    22:00 +5°C° 2.6 mm 2 mps 594 mmHg 95%
    23:00 +6°C° 2.6 mm 1 mps 594 mmHg 96%

    Tomorrow, 31 March, Tuesday

    Time Temperature Precipitation Wind Pressure Humidity
    00:00 +5°C° 2.5 mm 2 mps 594 mmHg 96%
    01:00 +5°C° 2.5 mm 2 mps 594 mmHg 97%
    02:00 +5°C° 2.5 mm 2 mps 593 mmHg 97%
    03:00 +5°C° 1.2 mm 2 mps 593 mmHg 96%
    04:00 +5°C° 1.2 mm 2 mps 593 mmHg 96%
    05:00 +5°C° 1.2 mm 2 mps 592 mmHg 95%
    06:00 +5°C° 1.5 mm 2 mps 593 mmHg 95%
    07:00 +5°C° 1.5 mm 2 mps 593 mmHg 95%
    08:00 +6°C° 1.5 mm 1 mps 593 mmHg 95%
    09:00 +6°C° 2.3 mm 1 mps 593 mmHg 96%
    10:00 +6°C° 2.3 mm 1 mps 593 mmHg 96%
    11:00 +5°C° 2.3 mm 1 mps 593 mmHg 96%
    12:00 +5°C° 1.5 mm 1 mps 593 mmHg 97%
    13:00 +5°C° 1.5 mm 1 mps 593 mmHg 97%
    14:00 +5°C° 1.5 mm 1 mps 593 mmHg 97%
    15:00 +6°C° 0.1 mm 1 mps 592 mmHg 95%
    16:00 +5°C° 0.1 mm 0 mps 592 mmHg 93%
    17:00 +6°C° 0.1 mm 0 mps 592 mmHg 92%
    18:00 +5°C° 0 mm 0 mps 593 mmHg 92%
    19:00 +5°C° 0 mm 0 mps 593 mmHg 92%
    20:00 +5°C° 0 mm 0 mps 594 mmHg 92%
    21:00 +5°C° 0 mm 0 mps 594 mmHg 92%
    22:00 +4°C° 0 mm 0 mps 594 mmHg 91%
    23:00 +4°C° 0 mm 0 mps 594 mmHg 91%

    Day after tomorrow, 1 April, Wednesday

    Time Temperature Precipitation Wind Pressure Humidity
    00:00 +4°C° 0 mm 0 mps 594 mmHg 90%
    01:00 +4°C° 0 mm 0 mps 594 mmHg 89%
    02:00 +4°C° 0 mm 0 mps 593 mmHg 88%
    03:00 +5°C° 0 mm 1 mps 593 mmHg 86%
    04:00 +4°C° 0 mm 1 mps 593 mmHg 85%
    05:00 +4°C° 0 mm 1 mps 593 mmHg 83%
    06:00 +5°C° 0 mm 1 mps 594 mmHg 80%
    07:00 +5°C° 0 mm 1 mps 594 mmHg 78%
    08:00 +6°C° 0 mm 1 mps 595 mmHg 75%
    09:00 +7°C° 0 mm 1 mps 595 mmHg 73%
    10:00 +8°C° 0 mm 1 mps 596 mmHg 71%
    11:00 +8°C° 0 mm 2 mps 596 mmHg 69%
    12:00 +9°C° 0.2 mm 2 mps 596 mmHg 64%
    13:00 +9°C° 0.2 mm 2 mps 596 mmHg 59%
    14:00 +10°C° 0.2 mm 3 mps 596 mmHg 54%
    15:00 +10°C° 0.1 mm 4 mps 596 mmHg 50%
    16:00 +9°C° 0.1 mm 5 mps 596 mmHg 46%
    17:00 +9°C° 0.1 mm 6 mps 596 mmHg 42%
    18:00 +8°C° 0 mm 5 mps 596 mmHg 44%
    19:00 +6°C° 0 mm 4 mps 596 mmHg 47%
    20:00 +5°C° 0 mm 3 mps 596 mmHg 50%
    21:00 +6°C° 0 mm 2 mps 596 mmHg 51%
    22:00 +5°C° 0 mm 2 mps 595 mmHg 52%
    23:00 +4°C° 0 mm 2 mps 595 mmHg 53%

    2 April, Thursday

    Time Temperature Precipitation Wind Pressure Humidity
    00:00 +4°C° 0 mm 2 mps 595 mmHg 54%
    01:00 +3°C° 0 mm 2 mps 595 mmHg 56%
    02:00 +3°C° 0 mm 2 mps 595 mmHg 57%
    03:00 +4°C° 0 mm 1 mps 594 mmHg 58%
    04:00 +3°C° 0 mm 1 mps 594 mmHg 58%
    05:00 +3°C° 0 mm 1 mps 594 mmHg 59%
    06:00 +3°C° 0 mm 1 mps 594 mmHg 57%
    07:00 +4°C° 0 mm 1 mps 595 mmHg 54%
    08:00 +4°C° 0 mm 1 mps 595 mmHg 52%
    09:00 +6°C° 0 mm 1 mps 595 mmHg 50%
    10:00 +7°C° 0 mm 1 mps 596 mmHg 49%
    11:00 +8°C° 0 mm 1 mps 596 mmHg 47%
    12:00 +10°C° 0 mm 1 mps 596 mmHg 43%
    13:00 +11°C° 0 mm 1 mps 597 mmHg 40%
    14:00 +12°C° 0 mm 1 mps 597 mmHg 36%
    15:00 +12°C° 0 mm 1 mps 597 mmHg 35%
    16:00 +12°C° 0 mm 1 mps 597 mmHg 33%
    17:00 +13°C° 0 mm 1 mps 596 mmHg 32%
    18:00 +11°C° 0 mm 1 mps 596 mmHg 36%
    19:00 +10°C° 0 mm 1 mps 596 mmHg 40%
    20:00 +9°C° 0 mm 1 mps 597 mmHg 45%
    21:00 +9°C° 0 mm 1 mps 596 mmHg 45%
    22:00 +8°C° 0 mm 1 mps 596 mmHg 46%
    23:00 +8°C° 0 mm 1 mps 596 mmHg 47%

    3 April, Friday

    Time Temperature Precipitation Wind Pressure Humidity
    00:00 +7°C° 0 mm 1 mps 596 mmHg 47%
    01:00 +7°C° 0 mm 1 mps 596 mmHg 48%
    02:00 +6°C° 0 mm 1 mps 595 mmHg 49%
    03:00 +6°C° 0 mm 1 mps 595 mmHg 49%
    04:00 +5°C° 0 mm 1 mps 595 mmHg 49%
    05:00 +5°C° 0 mm 1 mps 595 mmHg 49%
    06:00 +6°C° 0 mm 1 mps 595 mmHg 45%
    07:00 +7°C° 0 mm 1 mps 596 mmHg 42%
    08:00 +7°C° 0 mm 1 mps 597 mmHg 39%
    09:00 +9°C° 0 mm 1 mps 597 mmHg 39%
    10:00 +10°C° 0 mm 1 mps 597 mmHg 38%
    11:00 +11°C° 0 mm 1 mps 598 mmHg 37%
    12:00 +13°C° 0 mm 1 mps 598 mmHg 35%
    13:00 +14°C° 0 mm 1 mps 598 mmHg 33%
    14:00 +15°C° 0 mm 1 mps 598 mmHg 31%
    15:00 +15°C° 0 mm 1 mps 598 mmHg 31%
    16:00 +15°C° 0 mm 1 mps 598 mmHg 31%
    17:00 +15°C° 0 mm 1 mps 598 mmHg 31%
    18:00 +14°C° 0 mm 1 mps 598 mmHg 35%
    19:00 +13°C° 0 mm 1 mps 598 mmHg 40%
    20:00 +13°C° 0 mm 1 mps 598 mmHg 44%
    21:00 +12°C° 0 mm 1 mps 598 mmHg 45%
    22:00 +12°C° 0 mm 1 mps 598 mmHg 46%
    23:00 +11°C° 0 mm 1 mps 598 mmHg 47%

    4 April, Saturday

    Time Temperature Precipitation Wind Pressure Humidity
    00:00 +11°C° 0 mm 1 mps 598 mmHg 48%
    01:00 +11°C° 0 mm 1 mps 598 mmHg 49%
    02:00 +10°C° 0 mm 1 mps 597 mmHg 50%
    03:00 +10°C° 0 mm 1 mps 597 mmHg 51%
    04:00 +9°C° 0 mm 1 mps 597 mmHg 52%
    05:00 +9°C° 0 mm 1 mps 596 mmHg 53%
    06:00 +10°C° 0 mm 1 mps 597 mmHg 50%
    07:00 +10°C° 0 mm 1 mps 597 mmHg 47%
    08:00 +11°C° 0 mm 1 mps 598 mmHg 44%
    09:00 +12°C° 0 mm 1 mps 598 mmHg 43%
    10:00 +13°C° 0 mm 1 mps 599 mmHg 41%
    11:00 +13°C° 0 mm 0 mps 599 mmHg 40%
    12:00 +15°C° 0 mm 1 mps 599 mmHg 39%
    13:00 +16°C° 0 mm 1 mps 599 mmHg 37%
    14:00 +17°C° 0 mm 2 mps 599 mmHg 36%
    15:00 +17°C° 0.1 mm 2 mps 599 mmHg 36%
    16:00 +17°C° 0.1 mm 2 mps 599 mmHg 36%
    17:00 +17°C° 0.1 mm 2 mps 598 mmHg 37%
    18:00 +15°C° 0.2 mm 2 mps 598 mmHg 43%
    19:00 +14°C° 0.2 mm 2 mps 598 mmHg 49%
    20:00 +13°C° 0.2 mm 1 mps 598 mmHg 55%
    21:00 +13°C° 0.1 mm 1 mps 598 mmHg 56%
    22:00 +12°C° 0.1 mm 1 mps 598 mmHg 57%
    23:00 +12°C° 0.1 mm 1 mps 599 mmHg 59%
    Show more